• Join FlightAware (Why Join?)
  • Login
  • US Flag 
10:22AM EST


 

Airport Tracker/Info


-or-


 

Live Flight TrackerFlight Track Log ✈ GJS3707 ✈ 22-May-2013 ✈ KORD - KBOI

Flight Track Log - Related Links

Times and Time Zones

All times are in EDT time to prevent confusion due to time zone crossing. See the GJS3707 flight status page for this flight to view local times or setup timezone preferences in your user account.

Time Position Orientation Groundspeed Altitude Reporting Facility
EDT Latitude Longitude Course Direction KTS MPH feet Rate Location/Type
11:05AM 42.0000 -87.9667 270° West 172 198 2,100  Level Chicago TRACON
11:06AM 42.0167 -88.0500 285° West 208 239 4,100 1,860 Climbing Chicago TRACON
11:08AM 42.0311 -88.1500 281° West 240 276 6,600 2,040 Climbing Chicago Center
11:09AM 41.9668 -88.6528 270° West  Level FlightAware Approximate
11:09AM 42.0397 -88.2483 277° West 263 303 9,000  Level Chicago Center
11:10AM 41.9667 -88.8034 270° West  Level FlightAware Approximate
11:10AM 42.0286 -88.3517 262° West 278 320 10,700  Level Chicago Center
11:11AM 41.9669 -88.9579 270° West  Level FlightAware Approximate
11:11AM 42.0142 -88.4958 262° West 313 360 12,800  Level Chicago Center
11:12AM 42.0192 -88.6242 273° West 340 391 14,700 1,620 Climbing Chicago Center
11:13AM 42.0292 -88.7550 276° West 355 409 16,200 1,680 Climbing Chicago Center
11:14AM 42.0461 -88.8914 280° West 370 426 18,200 1,800 Climbing Chicago Center
11:15AM 42.0706 -89.0508 282° West 383 441 19,900 1,560 Climbing Chicago Center
11:16AM 42.0936 -89.1969 282° West 396 456 21,400 1,440 Climbing Chicago Center
11:17AM 42.1194 -89.3433 283° West 403 464 22,900 1,200 Climbing Chicago Center
11:18AM 42.1469 -89.4969 284° West 417 480 23,900 1,020 Climbing Chicago Center
11:19AM 42.1361 -89.6772 265° West 419 482 25,100 1,020 Climbing Chicago Center
11:20AM 42.1242 -89.8369 264° West 426 490 26,100 960 Climbing Chicago Center
11:21AM 42.1108 -90.0069 264° West 432 497 27,100 960 Climbing Chicago Center
11:22AM 42.1008 -90.1686 265° West 437 503 28,100 960 Climbing Chicago Center
11:23AM 42.0903 -90.3314 265° West 439 505 29,100 960 Climbing Chicago Center
11:24AM 42.1089 -90.4958 279° West 463 533 30,200 960 Climbing Chicago Center
11:25AM 42.1661 -90.6528 296° West 472 543 31,100 900 Climbing Chicago Center
11:26AM 42.2219 -90.8097 296° West 469 540 32,100 1,020 Climbing Chicago Center
11:27AM 42.2892 -90.9950 296° West 461 531 33,300 900 Climbing Chicago Center
11:28AM 42.3497 -91.1442 299° West 459 528 34,000 300 Climbing Chicago Center
11:29AM 42.4264 -91.2897 306° West 477 549 34,000  Level Chicago Center
11:30AM 42.4994 -91.4417 303° West 482 555 34,000  Level Chicago Center
11:31AM 42.5739 -91.5933 304° West 482 555 34,000  Level Chicago Center
11:32AM 42.6483 -91.7431 304° West 475 547 34,000  Level Chicago Center
11:33AM 42.7231 -91.8903 305° West 469 540 34,000  Level Chicago Center
11:35AM 42.8069 -92.0681 303° West 466 536 34,000  Level Chicago Center
11:36AM 42.8456 -92.2311 288° West 456 525 34,000  Level Chicago Center
11:37AM 42.8842 -92.3953 288° West 457 526 34,000  Level Chicago Center
11:38AM 42.9214 -92.5578 287° West 454 522 34,000  Level Chicago Center
11:38AM 42.9517 -92.6906 287° West 456 525 34,000  Level Minneapolis Center
11:39AM 42.9881 -92.8517 287° West 452 520 34,000  Level Minneapolis Center
11:40AM 43.0244 -93.0142 287° West 452 520 34,000  Level Minneapolis Center
11:41AM 43.0597 -93.1753 287° West 447 514 34,000  Level Minneapolis Center
11:42AM 43.0917 -93.3378 285° West 446 513 34,000  Level Minneapolis Center
11:43AM 43.1286 -93.5311 285° West 444 511 34,000  Level Minneapolis Center
11:44AM 43.1586 -93.6964 284° West 449 517 34,000  Level Minneapolis Center
11:46AM 43.1867 -93.8631 283° West 453 521 34,000  Level Minneapolis Center
11:47AM 43.2150 -94.0297 283° West 454 522 34,000  Level Minneapolis Center
11:48AM 43.2436 -94.1967 283° West 454 522 34,000  Level Minneapolis Center
11:49AM 43.2764 -94.3906 283° West 456 525 34,000  Level Minneapolis Center
11:50AM 43.3039 -94.5597 283° West 455 524 34,000  Level Minneapolis Center
11:51AM 43.3331 -94.7275 283° West 452 520 34,000  Level Minneapolis Center
11:52AM 43.3597 -94.8950 282° West 450 518 34,000  Level Minneapolis Center
11:53AM 43.3925 -95.0931 283° West 444 511 34,000  Level Minneapolis Center
11:54AM 43.4189 -95.2592 282° West 444 511 34,000  Level Minneapolis Center
11:55AM 43.4450 -95.4258 282° West 446 513 34,000  Level Minneapolis Center
11:56AM 43.4714 -95.5900 283° West 441 507 34,000  Level Minneapolis Center
11:57AM 43.4964 -95.7553 282° West 440 506 34,000  Level Minneapolis Center
11:58AM 43.5214 -95.9206 282° West 440 506 34,000  Level Minneapolis Center
11:59AM 43.5469 -96.0858 282° West 440 506 34,000  Level Minneapolis Center
12:00PM 43.5714 -96.2497 282° West 436 502 34,000  Level Minneapolis Center
12:01PM 43.6006 -96.4456 282° West 432 497 34,000  Level Minneapolis Center
12:02PM 43.6247 -96.6086 282° West 432 497 34,000  Level Minneapolis Center
12:03PM 43.6481 -96.7708 281° West 431 496 34,000  Level Minneapolis Center
12:04PM 43.6611 -96.9356 276° West 429 494 34,000  Level Minneapolis Center
12:05PM 43.6736 -97.0994 276° West 429 494 34,000  Level Minneapolis Center
12:06PM 43.6861 -97.2622 276° West 428 493 34,000  Level Minneapolis Center
12:07PM 43.6997 -97.4272 277° West 431 496 34,000  Level Minneapolis Center
12:08PM 43.7133 -97.6244 276° West 431 496 34,000  Level Minneapolis Center
12:09PM 43.7258 -97.7897 276° West 433 498 34,000  Level Minneapolis Center
12:10PM 43.7367 -97.9544 275° West 433 498 34,000  Level Minneapolis Center
12:11PM 43.7489 -98.1217 276° West 435 501 34,000  Level Minneapolis Center
12:12PM 43.7597 -98.2875 275° West 435 501 34,000  Level Minneapolis Center
12:13PM 43.7714 -98.4556 276° West 438 504 34,000  Level Minneapolis Center
12:14PM 43.7839 -98.6569 275° West 439 505 34,000  Level Minneapolis Center
12:15PM 43.7931 -98.8019 275° West 442 509 34,000  Level Minneapolis Center
12:16PM 43.8047 -99.0036 275° West 440 506 34,000  Level Minneapolis Center
12:18PM 43.8158 -99.1719 275° West 439 505 34,000  Level Minneapolis Center
12:19PM 43.8250 -99.3414 274° West 440 506 34,000  Level Minneapolis Center
12:20PM 43.8336 -99.5086 274° West 437 503 34,000  Level Minneapolis Center
12:21PM 43.8431 -99.6750 275° West 435 501 34,000  Level Minneapolis Center
12:22PM 43.8519 -99.8433 274° West 436 502 34,000  Level Minneapolis Center
12:23PM 43.8614 -100.0092 275° West 433 498 34,000  Level Minneapolis Center
12:24PM 43.8708 -100.2092 274° West 432 497 34,000  Level Minneapolis Center
12:25PM 43.8781 -100.3747 274° West 431 496 34,000  Level Minneapolis Center
12:26PM 43.8861 -100.5406 274° West 430 495 34,000  Level Minneapolis Center
12:27PM 43.8942 -100.7067 274° West 431 496 34,000  Level Minneapolis Center
12:28PM 43.9011 -100.8708 273° West 428 493 34,000  Level Minneapolis Center
12:29PM 43.9069 -101.0328 273° West 425 489 34,000  Level Minneapolis Center
12:30PM 43.9136 -101.1967 273° West 424 488 34,000  Level Minneapolis Center
12:31PM 43.9211 -101.3922 273° West 424 488 34,000  Level Minneapolis Center
12:32PM 43.9281 -101.5569 273° West 424 488 34,000  Level Minneapolis Center
12:33PM 43.9361 -101.7236 274° West 427 491 34,000  Level Denver Center
12:34PM 43.9383 -101.8833 271° West 419 482 34,000  Level Denver Center
12:35PM 43.9431 -102.0464 272° West 420 483 34,000  Level Denver Center
12:36PM 43.9508 -102.2450 273° West 426 490 34,000  Level Denver Center
12:37PM 43.9575 -102.4136 273° West 433 498 34,000  Level Denver Center
12:38PM 43.9625 -102.5789 272° West 432 497 34,000  Level Denver Center
12:39PM 43.9686 -102.7464 273° West 432 497 34,000  Level Denver Center
12:40PM 43.9744 -102.9161 273° West 435 501 34,000  Level Denver Center
12:41PM 43.9786 -103.1011 272° West 433 498 34,000  Level Denver Center
12:42PM 43.9811 -103.2631 271° West 436 502 34,000  Level Denver Center
12:43PM 43.9847 -103.4492 272° West 435 501 34,000  Level Denver Center
12:44PM 43.9875 -103.6094 271° West 434 499 34,000  Level Denver Center
12:45PM 43.9906 -103.7961 271° West 434 499 34,000  Level Denver Center
12:46PM 43.9925 -103.9569 271° West 436 502 34,000  Level Denver Center
12:48PM 43.9956 -104.1433 271° West 433 498 34,000  Level Denver Center
12:49PM 43.9972 -104.3039 271° West 435 501 34,000  Level Denver Center
12:50PM 43.9997 -104.4894 271° West 433 498 34,000  Level Denver Center
12:51PM 44.0006 -104.6486 270° West 433 498 34,000  Level Denver Center
12:52PM 44.0019 -104.8358 271° West 435 501 34,000  Level Denver Center
12:53PM 44.0025 -104.9956 270° West 433 498 34,000  Level Denver Center
12:54PM 44.0033 -105.1828 270° West 436 502 34,000  Level Denver Center
12:55PM 44.0039 -105.3433 270° West 436 502 34,000  Level Denver Center
12:56PM 44.0036 -105.5033 270° West 435 501 34,000  Level Denver Center
12:57PM 44.0033 -105.6908 270° West 436 502 34,000  Level Denver Center
12:58PM 44.0031 -105.9028 270° West 434 499 34,000  Level Denver Center
12:59PM 44.0028 -106.0603 270° West 431 496 34,000  Level Denver Center
01:00PM 44.0014 -106.2456 269° West 430 495 34,000  Level Denver Center
01:01PM 44.0000 -106.4028 269° West 428 493 34,000  Level Denver Center
01:02PM 44.0050 -106.5875 272° West 430 495 34,000  Level Denver Center
01:03PM 44.0097 -106.7247 273° West 424 488 34,000  Level Salt Lake Center
01:04PM 44.0161 -106.8819 273° West 425 489 34,000  Level Salt Lake Center
01:05PM 44.0219 -107.0625 273° West 420 483 34,000  Level Salt Lake Center
01:06PM 44.0272 -107.2186 273° West 421 484 34,000  Level Salt Lake Center
01:07PM 44.0336 -107.3983 273° West 418 481 34,000  Level Salt Lake Center
01:08PM 44.0381 -107.5511 272° West 414 476 34,000  Level Salt Lake Center
01:09PM 44.0439 -107.7050 273° West 415 478 34,000  Level Salt Lake Center
01:10PM 44.0486 -107.8856 272° West 417 480 34,000  Level Salt Lake Center
01:11PM 44.0525 -108.0367 272° West 409 471 34,000  Level Salt Lake Center
01:12PM 44.0572 -108.2131 272° West 409 471 34,000  Level Salt Lake Center
01:13PM 44.0614 -108.3644 272° West 409 471 34,000  Level Salt Lake Center
01:14PM 44.0644 -108.5153 272° West 409 471 34,000  Level Salt Lake Center
01:15PM 44.0686 -108.6906 272° West 406 467 34,000  Level Salt Lake Center
01:16PM 44.0722 -108.8400 272° West 404 465 34,000  Level Salt Lake Center
01:18PM 44.0758 -109.0147 272° West 404 465 34,000  Level Salt Lake Center
01:19PM 44.0775 -109.1639 271° West 404 465 34,000  Level Salt Lake Center
01:20PM 44.0803 -109.3381 271° West 403 464 34,000  Level Salt Lake Center
01:21PM 44.0819 -109.4947 271° West 400 460 34,000  Level Salt Lake Center
01:22PM 44.0856 -109.6439 272° West 401 461 34,000  Level Salt Lake Center
01:23PM 44.0875 -109.7917 271° West 400 460 34,000  Level Salt Lake Center
01:24PM 44.0886 -109.9650 271° West 402 463 34,000  Level Salt Lake Center
01:25PM 44.0892 -110.1142 270° West 402 463 34,000  Level Salt Lake Center
01:26PM 44.0922 -110.2903 271° West 406 467 34,000  Level Salt Lake Center
01:27PM 44.0922 -110.4408 270° West 407 468 34,000  Level Salt Lake Center
01:28PM 44.0931 -110.6178 270° West 408 470 34,000  Level Salt Lake Center
01:29PM 44.0936 -110.7678 270° West 406 467 34,000  Level Salt Lake Center
01:30PM 44.0936 -110.9189 270° West 407 468 34,000  Level Salt Lake Center
01:31PM 44.0944 -111.0942 270° West 405 466 34,000  Level Salt Lake Center
01:32PM 44.0944 -111.2439 270° West 404 465 34,000  Level Salt Lake Center
01:33PM 44.0933 -111.4194 270° West 404 465 34,000  Level Salt Lake Center
01:34PM 44.0936 -111.5706 270° West 405 466 34,000  Level Salt Lake Center
01:35PM 44.0931 -111.7208 270° West 404 465 34,000  Level Salt Lake Center
01:36PM 44.0919 -111.8961 270° West 403 464 34,000  Level Salt Lake Center
01:37PM 44.0906 -112.0461 269° West 404 465 34,000  Level Salt Lake Center
01:38PM 44.0856 -112.2175 268° West 398 458 34,000  Level Salt Lake Center
01:39PM 44.0694 -112.3639 261° West 399 459 34,000  Level Salt Lake Center
01:40PM 44.0494 -112.5333 261° West 398 458 34,000  Level Salt Lake Center
01:41PM 44.0336 -112.6789 261° West 398 458 34,000  Level Salt Lake Center
01:42PM 44.0142 -112.8214 259° West 395 455 34,000  Level Salt Lake Center
01:43PM 43.9939 -112.9897 261° West 395 455 34,000  Level Salt Lake Center
01:44PM 43.9753 -113.1361 260° West 399 459 34,000  Level Salt Lake Center
01:45PM 43.9547 -113.3042 260° West 397 457 34,000  Level Salt Lake Center
01:46PM 43.9358 -113.4478 260° West 396 456 34,000  Level Salt Lake Center
01:47PM 43.9178 -113.6214 262° West 405 466 34,000  Level Salt Lake Center
01:48PM 43.8953 -113.7633 258° West 395 455 34,000  Level Salt Lake Center
01:49PM 43.8756 -113.9325 261° West 395 455 34,000 -60 Level Salt Lake Center
01:50PM 43.8556 -114.0758 259° West 395 455 33,900 -720 Descending Salt Lake Center
01:52PM 43.8356 -114.2189 259° West 394 453 32,600 -1,800 Descending Salt Lake Center
01:53PM 43.8150 -114.3842 260° West 387 445 30,300 -2,040 Descending Salt Lake Center
01:54PM 43.7950 -114.5261 259° West 390 449 28,400 -2,040 Descending Salt Lake Center
01:55PM 43.7725 -114.6900 259° West 388 447 26,100 -2,100 Descending Salt Lake Center
01:57PM 43.7308 -114.9800 259° West 364 419 22,000 -1,980 Descending Salt Lake Center
01:58PM 43.7119 -115.1147 259° West 373 429 20,100 -2,040 Descending Salt Lake Center
01:59PM 43.6900 -115.2667 259° West 364 419 17,800 -2,160 Descending Salt Lake Center
02:00PM 43.6708 -115.3969 259° West 342 394 15,700 -2,040 Descending Salt Lake Center
02:01PM 43.6519 -115.5239 258° West 326 375 13,600 -1,800 Descending Salt Lake Center
02:02PM 43.6353 -115.6344 258° West 308 354 12,000 -1,020 Descending Salt Lake Center
02:03PM 43.6050 -115.7364 248° West 280 322 11,600 -900 Descending Salt Lake Center
02:04PM 43.5525 -115.8142 227° Southwest 267 307 10,200 -1,440 Descending Salt Lake Center
02:05PM 43.5000 -115.8869 225° Southwest 258 297 8,700 -1,440 Descending Salt Lake Center
02:06PM 43.4667 -115.9686 241° Southwest 255 293 7,300 -1,200 Descending Salt Lake Center
02:07PM 43.5014 -116.0442 302° West 223 257 6,300 -1,020 Descending Salt Lake Center